Regional Weather Roundup
Issued by NWS Little Rock, AR

Home | Current Version | Previous Version | Graphics & Text | Print | Product List | Glossary On
Versions: 1 2 3 4 5 6 7 8 9 10 11 12 13 14 15 16 17 18 19 20 21 22 23 24 25 26 27 28 29 30 31 32 33 34 35 36 37 38 39 40 41 42 43 44 45 46 47 48 49 50
000
ASUS44 KLZK 240805
RWRLZK

WEATHER ROUNDUP FOR ARKANSAS
NATIONAL WEATHER SERVICE LITTLE ROCK AR
300 AM CDT SUN MAY 24 2015

NOTE: "FAIR" INDICATES FEW OR NO CLOUDS BELOW 12,000 FEET WITH NO
SIGNIFICANT WEATHER AND/OR OBSTRUCTIONS TO VISIBILITY.

ARZ001-003-010-029-240900-
NORTHWEST ARKANSAS

CITY           SKY/WX    TMP DP  RH WIND       PRES   REMARKS
FAYETTEVILLE   LGT RAIN  70  66  87 S17G23    29.96F
FORT SMITH     CLOUDY    72  66  81 SE9       29.94F
HARRISON       CLOUDY    66  60  81 SE9       30.02S
BENTONVILLE    CLOUDY   N/A N/A N/A S10G18    29.96S
ROGERS         LGT RAIN  68  65  90 SE12      29.97S
SILOAM SPGS    CLOUDY    68  61  77 S10       29.97S
HIGHFILL       LGT RAIN  70  66  87 S15       29.95S
$$

ARZ004-005-016-240900-
NORTH CENTRAL ARKANSAS

CITY           SKY/WX    TMP DP  RH WIND       PRES   REMARKS
BATESVILLE     PTCLDY    70  59  68 NE7       30.05F
FLIPPIN        PTCLDY    66  57  72 E3        30.01S
MTN HOME       PTCLDY    66  58  75 SE7       30.02F
$$

ARZ040-041-240900-
WEST CENTRAL ARKANSAS

CITY           SKY/WX    TMP DP  RH WIND       PRES   REMARKS
MENA           CLOUDY    73  70  88 S8G16     29.99S
MOUNT IDA      MOCLDY    73  67  81 S8        29.97F
$$

ARZ009-017-025-026-028-240900-
NORTHEAST ARKANSAS

CITY           SKY/WX    TMP DP  RH WIND       PRES   REMARKS
CORNING          N/A     68  63  83 SE9       30.09F
JONESBORO      CLOUDY    68  60  75 SE8       30.08F
NEWPORT        MOCLDY    69  60  73 SE10      30.07F
WALNUT RIDGE   MOCLDY    68  57  68 SE10      30.07F
BLYTHEVILLE    CLOUDY    70  61  73 S8        30.11S
$$

ARZ022-023-033-042-044-240900-
CENTRAL ARKANSAS

CITY           SKY/WX    TMP DP  RH WIND       PRES   REMARKS
LITTLE ROCK    PTCLDY    72  64  76 SE6       30.03F
N LITTLE ROCK    N/A     71  67  85 SE9G16    30.03F
JACKSONVILLE   PTCLDY    71  64  78 SE6       30.03F
SEARCY         MOCLDY    67  63  87 CALM      30.06F
HOT SPRINGS    MOCLDY    73  66  78 S10       30.01F
RUSSELLVILLE   LGT RAIN  71  66  84 SE5       29.99F
CLINTON        MOCLDY    64  63  94 CALM      30.04F FOG
$$

ARZ036-240900-
EAST ARKANSAS

CITY           SKY/WX    TMP DP  RH WIND       PRES   REMARKS
WEST MEMPHIS   CLOUDY    70  61  73 SE10      30.09S
$$

ARZ050-053-066-070-073-240900-
SOUTHWEST ARKANSAS

CITY           SKY/WX    TMP DP  RH WIND       PRES   REMARKS
ARKADELPHIA    FAIR      73  71  93 SE6       30.02F
CAMDEN         MOCLDY    72  66  83 NE6       30.03F
TEXARKANA      MOCLDY    73  70  90 S10       30.00S
EL DORADO      CLOUDY    73  69  87 SE9       30.05S
DE QUEEN       CLOUDY    74  69  85 S7        29.97R
$$

ARZ056-057-069-240900-
SOUTHEAST ARKANSAS

CITY           SKY/WX    TMP DP  RH WIND       PRES   REMARKS
PINE BLUFF     PTCLDY    72  66  81 SE10      30.05F
STUTTGART      MOCLDY    73  63  68 MISG      30.06F
MONTICELLO     PTCLDY    71  68  90 S3        30.06F

$$




USA.gov is the U.S. government's official web portal to all federal, state and local government web resources and services.